www.pogodaiklimat.ru

Погода и климат >> Архив погоды >> Россия >> Астраханская область >> Лиман


ПОГОДА в Лимане

  • Прогноз погоды в Лимане
  • Монитор погоды в Лимане

АРХИВ ПОГОДЫ в Лимане

Время (UTC), дата Ветер
(напр.,м/с)
 
Видим.   Явления Облачность Т
(С)
Тd
(С)
f
(%)
Тe
(С)
Тes
(С)
Комфортность P
(гПа)
Po
(гПа)
Тmin
(С)
Tmax
(С)
R
(мм)
R24
(мм)
S
(см)
18 19.05 Ю 1 20 км 10/0
[Ac cuf Cs]
+20.4 +12.5 60 +24 +24 комфорт 1012.5 1014.3
21 19.05 Ю 1 20 км 10/0
[Cs]
+17.2 +12.2 72 +18 +18 1012.6 1014.4
00 20.05 З 1 20 км 10/0
[Ac trans Cs]
+15.5 +11.9 79 +16 +16 1013.1 1014.9
03 20.05 штиль 0 20 км 10/0
[Ac trans Cs]
+15.8 +10.8 72 +16 +17 1013.7 1015.5 +13.9
06 20.05 С 2 20 км 10/0
[Cs]
+24.6 +3.6 26 +24 +34 комфорт 1014.7 1016.5
09 20.05 С 3 20 км 8/0
[Cs]
+26.8 +3.0 22 +25 +38 комфорт 1015.8 1017.6
12 20.05 С 2 20 км 4/0
[Ci sp]
+26.9 +2.5 21 +25 +35 комфорт 1016.2 1018.0
15 20.05 С 3 20 км 9/0
[Cs]
+23.5 +0.8 22 +23 +23 комфорт 1017.0 1018.8 +27.4
18 20.05 штиль 0 20 км 10/0
[Cs]
+15.7 +0.8 36 +16 +16 1019.0 1020.9
21 20.05 С 1 20 км 6/0
[Ci fib]
+11.3 +2.0 53 +11 +11 1020.0 1021.9
00 21.05 В 2 20 км ясно +12.7 +2.3 49 +12 +12 1020.7 1022.6
03 21.05 СВ 1 20 км ясно +14.0 +6.7 61 +14 +17 1021.8 1023.7 +8.9
06 21.05 СВ 1 20 км ясно +20.3 +0.4 26 +21 +36 комфорт 1022.9 1024.8
09 21.05 СВ 2 20 км ясно +22.0 +0.1 23 +21 +40 комфорт 1023.1 1024.9
12 21.05 СВ 2 20 км ясно +22.4 -1.2 21 +21 +32 комфорт 1022.4 1024.3
15 21.05 ЮВ 3 20 км 1/0
[Ci fib]
+20.3 +3.3 33 +21 +22 комфорт 1022.1 1023.9 +23.4
18 21.05 ЮВ 2 20 км ясно +14.6 +5.1 53 +14 +14 1022.9 1024.8
21 21.05 штиль 0 20 км ясно +12.0 +6.1 67 +12 +12 1022.7 1024.6
00 22.05 В 2 20 км 10/0
[Cs]
+12.0 +8.9 81 +11 +11 1022.1 1023.9
03 22.05 В 2 20 км 10/0
[Cs]
+15.9 +8.9 63 +16 +17 1021.5 1023.4 +11.3
06 22.05 В 5-11
{11}
20 км пыльный позёмок 10/1 600 м
[Sc Cs]
+19.8 +5.3 39 +20 +25 1020.9 1022.7
09 22.05 В 5-10
{12}
20 км пыльный позёмок 10/0
[Cs]
+20.4 +1.4 28 +21 +28 комфорт 1019.4 1021.2
12 22.05 В 6-12
{12}
20 км пыльный позёмок 10/0
[Cs]
+21.3 +3.9 32 +22 +25 комфорт 1017.6 1019.4
15 22.05 ЮВ 4
{12}
20 км 10/0
[Ac cast Cs]
+19.8 +2.2 31 +20 +21 1017.8 1019.6 +21.8
18 22.05 В 2 20 км 8/0
[Cs]
+16.2 +7.3 56 +16 +16 1017.9 1019.8
21 22.05 СВ 2 20 км 9/0
[Ac und Ci fib]
+14.3 +8.9 70 +14 +14 1016.1 1017.9
00 23.05 В 1 20 км 9/0
[Ac As]
+14.0 +11.4 84 +14 +14 1015.0 1016.8
03 23.05 штиль 0 20 км 10/3 600 м
[Sc diur, vesp Ac As]
+16.1 +12.8 81 +16 +16 1013.9 1015.7 +13.5
06 23.05 Ю 2 20 км 9/0
[Ac cast Cs]
+21.3 +7.3 40 +22 +30 комфорт 1013.6 1015.4
09 23.05 Ю 2 20 км 3/0
[Ac cast]
+25.4 +2.6 23 +24 +39 комфорт 1011.7 1013.5
12 23.05 В 5 20 км 9/4 600 м
[Cb cap Ac cuf Ci sp]
+23.5 +6.6 34 +24 +26 комфорт 1010.1 1011.9
15 23.05 Ю 2 20 км {гроза, ливн. осадки} 9/0
[Cs]
+20.5 +10.8 54 +23 +24 комфорт 1010.3 1012.1 +27.5 1
18 23.05 Ю 2 20 км {гроза, ливн. осадки} 4/4 600 м
[Sc diur, vesp]
+16.4 +12.1 76 +17 +17 1011.3 1013.2
21 23.05 ЮЗ 2 20 км ясно +15.0 +12.9 87 +15 +15 1010.6 1012.4
00 24.05 З 2 20 км 9/9 600 м
[Sc]
+15.5 +12.9 84 +15 +15 1010.3 1012.2
03 24.05 ЮЗ 1 20 км в посл. час ливневой дождь 9/9 600 м
[Cb cap]
+14.8 +13.0 89 +15 +15 1010.7 1012.6 +14.6 1
06 24.05 З 2 20 км {ливн. осадки} 8/8 600 м
[Sc]
+20.4 +13.6 65 +23 +26 комфорт 1010.3 1012.1
09 24.05 З 5
{11}
20 км 6/6 600 м
[Cu med, cong]
+24.8 +11.1 42 +26 +30 жарко 1009.6 1011.4
12 24.05 З 4
{10}
20 км 6/6 600 м
[Cu med, cong]
+27.3 +9.2 32 +27 +30 жарко 1009.3 1011.1
15 24.05 СЗ 3 20 км 3/0
[Ci sp]
+26.8 +7.5 29 +26 +27 жарко 1009.4 1011.2 +27.6
18 24.05 ЮЗ 1 20 км 8/0
[Cs]
+21.0 +11.3 54 +24 +24 комфорт 1011.1 1012.9
21 24.05 ЮЗ 2 20 км 3/0
[Ci fib]
+18.1 +11.7 66 +19 +19 1011.7 1013.5
00 25.05 Ю 1 20 км 10/0
[Cs]
+15.1 +11.2 78 +16 +16 1011.7 1013.5
03 25.05 штиль 0 20 км 8/0
[Ac As Cs]
+18.3 +13.3 73 +19 +20 1012.3 1014.2 +13.9
06 25.05 В 2 20 км 9/0
[Cs]
+27.1 +9.8 34 +28 +38 жарко 1012.0 1013.8
09 25.05 В 5
{10}
20 км пыльный позёмок 8/1 600 м
[Cu hum Cs]
+28.2 +8.5 29 +28 +35 жарко 1011.4 1013.2
12 25.05 В 4
{12}
20 км пыльный позёмок 6/0
[Ci fib]
+27.1 +9.9 34 +28 +34 жарко 1011.0 1012.7
15 25.05 В 4
{13}
20 км пыльный позёмок 8/0
[Cs]
+23.5 +9.9 42 +25 +25 комфорт 1010.3 1012.1 +28.4
18 25.05 В 2
{10}
20 км 10/0
[Ac cuf Cs]
+20.7 +12.7 60 +24 +24 комфорт 1012.1 1013.9
21 25.05 В 3 20 км 10/10 600 м
[Sc]
+19.6 +14.6 73 +22 +22 комфорт 1010.9 1012.7
00 26.05 З 2 20 км в посл. час ливневой дождь 10/10 600 м
[Cb cap]
+18.2 +16.0 87 +19 +19 1012.0 1013.8
03 26.05 штиль 0 20 км 4/0
[Ac cast Ci sp]
+18.0 +15.6 86 +18 +20 1012.4 1014.2 +16.7 0.3
06 26.05 З 2 20 км 9/9 600 м
[Sc]
+23.8 +13.5 52 +26 +27 жарко 1013.4 1015.2
09 26.05 СЗ 3 20 км 6/6 600 м
[Sc]
+26.7 +10.0 35 +27 +33 жарко 1013.2 1015.0
12 26.05 СЗ 3 20 км 3/1 600 м
[Sc Ac trans]
+26.9 +8.5 31 +27 +34 жарко 1012.4 1014.2
15 26.05 СЗ 2 20 км 3/0
[Ac trans Ci sp]
+26.0 +9.6 36 +27 +28 жарко 1012.5 1014.3 +28.7

 

Местоположение метеостанции Лиман (Астраханская область, Россия): широта 45.80 долгота 47.22 высота над уровнем моря -18 м.

В архиве по умолчанию представлена погода в Лимане за последнюю неделю. Архивные данные за месяц целиком и за предыдущие месяцы, начиная с января 2011 года, Вы можете получить, выбрав интересующий диапазон дат из раскрывающегося списка и нажав кнопку "Ввод!".


*Определитесь, кто Вы:
робот инопланетянин человек

Внимание! Время в таблицах - всемирное. Для получения местного времени необходимо прибавить поправку, которая равна 4 ч.

Смотрите также архив погоды в соседних городах и на ближайших метеорологических станциях:

Погода в Лагани (Калмыкия, Россия) (46 км)
Погода в Астрахани (Астраханская область, Россия) (79 км)
Погода в Артезиане (Калмыкия, Россия) (102 км)
Погода в Комсомольском (Калмыкия, Россия) (105 км)
Погода в Утте (Калмыкия, Россия) (112 км)
Погода в Зеленге (Астраханская область, Россия) (116 км)
Погода в Досанге (Астраханская область, Россия) (136 км)
Погода на Острове Тюлений (Дагестан, Россия) (149 км)
Погода в Яшкуле (Калмыкия, Россия) (151 км)
Погода в Юсте (Калмыкия, Россия) (163 км)

Пояснения к столбцам:

Ветер - указаны скорость ветра в м/с - средняя за 10 мин, порывы в срок и между сроками (в фигурных скобках) и направление, откуда дует ветер: С - северный, СВ - северо-восточный, В - восточный, ЮВ - юго-восточный, Ю - южный, ЮЗ - юго-западный, З - западный, СЗ - северо-западный.
Видимость - горизонтальная дальность видимости в метрах или километрах. При видимости от 1 до 10 км при отсутствии осадков обычно наблюдается дымка, при ухудшении видимости до 1 км и менее - туман. В сухую погоду видимость может ухудшаться дымом, пылью или мглою.
Явления - указаны атмосферные явления, наблюдавшиеся в срок или в последний час перед сроком; фигурными скобками обозначены явления, наблюдавшиеся между сроками (за 1-3 часа до срока); квадратными скобками обозначены град или гололедные отложения с указанием их диаметра в мм.
Облачность - указаны через наклонную черту общая и нижняя облачность в баллах и высота нижней границы облаков в метрах; квадратными скобками обозначены формы облаков: Ci - перистые, Cs - перисто-слоистые, Cc - перисто-кучевые, Ac - высококучевые, As - высокослоистые, Sc - слоисто-кучевые, Ns - слоисто-дождевые, Cu - кучевые, Cb - кучево-дождевые. Подробнее классификацию облаков см. в Атласе облаков (PDF).
T - Температура воздуха - температура, измеренная на высоте 2 м над землей.
Td - Температура точки росы - температура, при понижении до которой содержащийся в воздухе водяной пар достигнет насыщения.
f - Относительная влажность воздуха - влажноcть воздуха, измеренная на высоте 2 м над землей.
Te - Эффективная температура - температура, которую ощущает одетый по сезону человек в тени. Характеристика душности погоды. При расчете учитывается влияние влажности воздуха и скорости ветра на теплоощущения человека.
Tes - Эффективная температура на солнце - температура, которую ощущает человек, с поправкой на солнечный нагрев. Характеристика знойности погоды. Зависит от высоты солнца над горизонтом, облачности и скорости ветра. Ночью, в пасмурную погоду, а также при ветре 12 м/с и более поправка равна нулю.
P - Атмосферное давление - приведенное к уровню моря атмосферное давление.
Po - Атмосферное давление - измеренное на уровне метеостанции атмосферное давление.
Tmin - Минимальная температура - минимум температуры воздуха на высоте 2 м над землей.
Tmax - Максимальная температура - максимум температуры воздуха на высоте 2 м над землей.
R - Количество осадков - Количество выпавших осадков за период времени, мм. При наведении курсора мыши на число - период времени, за который выпало указанное количество осадков.
R24 - Количество осадков - Количество выпавших осадков за 24 часа, мм.
S - Снежный покров - Высота снежного покрова, см. При наведении курсора мыши на число - состояние снежного покрова и степень покрытия местности в баллах.